| time (UTC) | temp F | wind direction | speed MPH | gust MPH | rain 1hr in | rain 24hr in | rain mn in | humidity % | barometer mb |
| 20260506091016 | 63 | 0.0 | 2.0 | 0.00 | 0.00 | 0.00 | 61 | 1011.4 | |
| 20260506090016 | 63 | 0.0 | 2.0 | 0.00 | 0.00 | 0.00 | 60 | 1011.6 | |
| 20260506085017 | 63 | 0.0 | 2.0 | 0.00 | 0.00 | 0.00 | 60 | 1011.7 | |
| 20260506084017 | 64 | 0.0 | 0.0 | 0.00 | 0.00 | 0.00 | 60 | 1011.9 | |
| 20260506083017 | 64 | 0.0 | 0.0 | 0.00 | 0.00 | 0.00 | 62 | 1011.8 | |
| 20260506082016 | 64 | 0.0 | 0.0 | 0.00 | 0.00 | 0.00 | 62 | 1012.0 | |
| 20260506081016 | 64 | 0.0 | 0.0 | 0.00 | 0.00 | 0.00 | 61 | 1011.9 | |
| 20260506073017 | 64 | 0.0 | 1.0 | 0.00 | 0.00 | 0.00 | 61 | 1012.0 | |
| 20260506072017 | 63 | 0.0 | 5.0 | 0.00 | 0.00 | 0.00 | 60 | 1012.2 | |
| 20260506071017 | 63 | 0.0 | 1.0 | 0.00 | 0.00 | 0.00 | 60 | 1012.3 | |
| 20260506062016 | 63 | 0.0 | 0.0 | 0.00 | 0.00 | 0.00 | 61 | 1012.2 | |
| 20260506061016 | 63 | 0.0 | 0.0 | 0.00 | 0.00 | 0.00 | 61 | 1012.1 | |
| 20260506051016 | 65 | 0.0 | 5.0 | 0.00 | 0.00 | 0.00 | 62 | 1012.4 | |
| 20260506045016 | 65 | 0.0 | 1.0 | 0.00 | 0.00 | 0.00 | 63 | 1012.4 | |
| 20260506044016 | 65 | 0.0 | 2.0 | 0.00 | 0.00 | 0.00 | 64 | 1012.4 | |
| 20260506043036 | 65 | 0.0 | 0.0 | 0.00 | 0.00 | 0.00 | 65 | 1012.5 | |
| 20260506042016 | 65 | 0.0 | 0.0 | 0.00 | 0.00 | 0.00 | 66 | 1012.5 | |
| 20260506041016 | 66 | 0.0 | 1.0 | 0.00 | 0.00 | 0.00 | 67 | 1012.4 | |
| 20260506040514 | 66 | 0.0 | 0.0 | 0.00 | 0.00 | 0.00 | 67 | 1012.3 | |
| 20260506035515 | 66 | 0.0 | 1.0 | 0.00 | 0.00 | 0.00 | 67 | 1012.2 | |
| 20260506034515 | 66 | 0.0 | 1.0 | 0.00 | 0.00 | 0.00 | 67 | 1012.1 | |
| 20260506033515 | 66 | 0.0 | 3.0 | 0.00 | 0.00 | 0.00 | 67 | 1012.3 | |
| 20260506032515 | 66 | 0.0 | 1.0 | 0.00 | 0.00 | 0.00 | 67 | 1012.3 | |
| 20260506031535 | 65 | 0.0 | 1.0 | 0.00 | 0.00 | 0.00 | 68 | 1012.3 | |
| 20260506030515 | 65 | 0.0 | 0.0 | 0.00 | 0.00 | 0.00 | 67 | 1012.3 | |
| 20260506025515 | 65 | 0.0 | 0.0 | 0.00 | 0.00 | 0.00 | 67 | 1012.1 | |
| 20260506024515 | 66 | 0.0 | 0.0 | 0.00 | 0.00 | 0.00 | 67 | 1011.9 | |
| 20260506023555 | 66 | 0.0 | 0.0 | 0.00 | 0.00 | 0.00 | 67 | 1011.8 | |
| 20260506022515 | 66 | 0.0 | 0.0 | 0.00 | 0.00 | 0.00 | 67 | 1011.7 | |
| 20260506021515 | 66 | 0.0 | 0.0 | 0.00 | 0.00 | 0.00 | 67 | 1011.6 | |
| 20260506020515 | 67 | 0.0 | 0.0 | 0.00 | 0.00 | 0.00 | 67 | 1011.8 | |
| 20260506015515 | 67 | 0.0 | 0.0 | 0.00 | 0.00 | 0.00 | 67 | 1011.9 | |
| 20260506014515 | 67 | 0.0 | 0.0 | 0.00 | 0.00 | 0.00 | 67 | 1012.0 | |
| 20260506013515 | 67 | 0.0 | 0.0 | 0.00 | 0.00 | 0.00 | 67 | 1012.1 | |
| 20260506012515 | 67 | 0.0 | 0.0 | 0.00 | 0.00 | 0.00 | 67 | 1012.0 | |
| 20260506011535 | 68 | 0.0 | 0.0 | 0.00 | 0.00 | 0.00 | 66 | 1012.0 | |
| 20260506010555 | 68 | 0.0 | 0.0 | 0.00 | 0.00 | 0.00 | 65 | 1012.0 | |
| 20260506005515 | 68 | 0.0 | 0.0 | 0.00 | 0.00 | 0.00 | 64 | 1011.9 | |
| 20260506004515 | 69 | 0.0 | 0.0 | 0.00 | 0.00 | 0.00 | 64 | 1011.9 | |
| 20260506003515 | 70 | 0.0 | 0.0 | 0.00 | 0.00 | 0.00 | 60 | 1011.9 | |
| 20260506002515 | 70 | 0.0 | 0.0 | 0.00 | 0.00 | 0.00 | 58 | 1011.7 | |
| 20260506001515 | 71 | 0.0 | 0.0 | 0.00 | 0.00 | 0.00 | 57 | 1011.6 | |
| 20260506000517 | 71 | 0.0 | 0.0 | 0.00 | 0.00 | 0.00 | 56 | 1011.5 | |
| 20260505235516 | 72 | 0.0 | 0.0 | 0.00 | 0.00 | 0.00 | 55 | 1011.3 | |
| 20260505234517 | 73 | 0.0 | 0.0 | 0.00 | 0.00 | 0.00 | 54 | 1011.4 | |
| 20260505233517 | 74 | 0.0 | 0.0 | 0.00 | 0.00 | 0.00 | 53 | 1011.3 | |
| 20260505232517 | 75 | 0.0 | 0.0 | 0.00 | 0.00 | 0.00 | 51 | 1011.4 | |
| 20260505231517 | 75 | 0.0 | 1.0 | 0.00 | 0.00 | 0.00 | 49 | 1011.5 | |
| 20260505230557 | 76 | 0.0 | 0.0 | 0.00 | 0.00 | 0.00 | 48 | 1011.5 | |
| 20260505225517 | 77 | 0.0 | 1.0 | 0.00 | 0.00 | 0.00 | 49 | 1011.5 | |
| 20260505224517 | 78 | 338 | 1.0 | 5.0 | 0.00 | 0.00 | 0.00 | 46 | 1011.6 |
| 20260505223517 | 79 | 225 | 3.0 | 9.0 | 0.00 | 0.00 | 0.00 | 44 | 1011.7 |
| 20260505222517 | 79 | 225 | 1.0 | 5.0 | 0.00 | 0.00 | 0.00 | 44 | 1011.7 |
| 20260505221517 | 79 | 225 | 1.0 | 5.0 | 0.00 | 0.00 | 0.00 | 40 | 1011.7 |
| 20260505220517 | 80 | 180 | 1.0 | 4.0 | 0.00 | 0.00 | 0.00 | 45 | 1011.8 |
| 20260505215556 | 80 | 203 | 1.0 | 8.0 | 0.00 | 0.00 | 0.00 | 41 | 1011.6 |
| 20260505214517 | 80 | 0.0 | 1.0 | 0.00 | 0.00 | 0.00 | 44 | 1011.8 | |
| 20260505213517 | 80 | 0.0 | 4.0 | 0.00 | 0.00 | 0.00 | 43 | 1011.9 | |
| 20260505212536 | 80 | 225 | 2.0 | 6.0 | 0.00 | 0.00 | 0.00 | 42 | 1011.9 |
| 20260505211516 | 82 | 203 | 1.0 | 5.0 | 0.00 | 0.00 | 0.00 | 40 | 1011.8 |
| 20260505210517 | 82 | 225 | 1.0 | 5.0 | 0.00 | 0.00 | 0.00 | 44 | 1012.1 |
| 20260505205517 | 81 | 203 | 1.0 | 5.0 | 0.00 | 0.00 | 0.00 | 45 | 1012.1 |
| 20260505204536 | 82 | 225 | 1.0 | 4.0 | 0.00 | 0.00 | 0.00 | 40 | 1012.2 |
| 20260505203516 | 82 | 248 | 1.0 | 7.0 | 0.00 | 0.00 | 0.00 | 42 | 1012.2 |
| 20260505202516 | 82 | 293 | 1.0 | 5.0 | 0.00 | 0.00 | 0.00 | 40 | 1012.3 |
| 20260505201537 | 83 | 0.0 | 4.0 | 0.00 | 0.00 | 0.00 | 42 | 1012.6 | |
| 20260505200536 | 82 | 203 | 1.0 | 6.0 | 0.00 | 0.00 | 0.00 | 44 | 1012.7 |
| 20260505195516 | 81 | 0.0 | 2.0 | 0.00 | 0.00 | 0.00 | 40 | 1012.9 | |
| 20260505194536 | 81 | 203 | 2.0 | 5.0 | 0.00 | 0.00 | 0.00 | 42 | 1013.0 |
| 20260505193536 | 80 | 203 | 2.0 | 7.0 | 0.00 | 0.00 | 0.00 | 43 | 1013.2 |
| 20260505192536 | 80 | 293 | 2.0 | 7.0 | 0.00 | 0.00 | 0.00 | 40 | 1013.4 |
| 20260505191516 | 81 | 203 | 1.0 | 4.0 | 0.00 | 0.00 | 0.00 | 42 | 1013.4 |
| 20260505190517 | 81 | 0.0 | 3.0 | 0.00 | 0.00 | 0.00 | 42 | 1013.4 | |
| 20260505185516 | 80 | 203 | 1.0 | 6.0 | 0.00 | 0.00 | 0.00 | 45 | 1013.5 |
| 20260505184516 | 80 | 0.0 | 2.0 | 0.00 | 0.00 | 0.00 | 43 | 1013.5 | |
| 20260505183516 | 80 | 225 | 1.0 | 4.0 | 0.00 | 0.00 | 0.00 | 42 | 1013.7 |
| 20260505182516 | 80 | 180 | 1.0 | 4.0 | 0.00 | 0.00 | 0.00 | 44 | 1014.0 |
| 20260505181516 | 80 | 203 | 1.0 | 5.0 | 0.00 | 0.00 | 0.00 | 40 | 1014.4 |
| 20260505180516 | 79 | 0.0 | 4.0 | 0.00 | 0.00 | 0.00 | 46 | 1014.4 | |
| 20260505175516 | 79 | 180 | 3.0 | 7.0 | 0.00 | 0.00 | 0.00 | 46 | 1014.7 |
| 20260505174516 | 79 | 23 | 2.0 | 5.0 | 0.00 | 0.00 | 0.00 | 45 | 1014.7 |
| 20260505173516 | 79 | 180 | 1.0 | 5.0 | 0.00 | 0.00 | 0.00 | 44 | 1014.7 |
| 20260505172516 | 79 | 225 | 1.0 | 4.0 | 0.00 | 0.00 | 0.00 | 46 | 1014.6 |
| 20260505171516 | 79 | 203 | 2.0 | 6.0 | 0.00 | 0.00 | 0.00 | 45 | 1014.4 |
| 20260505170516 | 78 | 158 | 2.0 | 10.0 | 0.00 | 0.00 | 0.00 | 42 | 1014.5 |
| 20260505165516 | 77 | 225 | 1.0 | 5.0 | 0.00 | 0.00 | 0.00 | 46 | 1014.5 |
| 20260505164517 | 76 | 0.0 | 4.0 | 0.00 | 0.00 | 0.00 | 48 | 1014.8 | |
| 20260505163516 | 76 | 158 | 1.0 | 8.0 | 0.00 | 0.00 | 0.00 | 49 | 1014.7 |
| 20260505162557 | 77 | 90 | 1.0 | 8.0 | 0.00 | 0.00 | 0.00 | 51 | 1015.0 |
| 20260505161516 | 77 | 225 | 1.0 | 6.0 | 0.00 | 0.00 | 0.00 | 47 | 1015.3 |
| 20260505160516 | 77 | 225 | 1.0 | 3.0 | 0.00 | 0.00 | 0.00 | 54 | 1015.3 |
| 20260505152516 | 74 | 45 | 1.0 | 5.0 | 0.00 | 0.00 | 0.00 | 57 | 1015.6 |
| 20260505151515 | 73 | 0.0 | 2.0 | 0.00 | 0.00 | 0.00 | 60 | 1015.5 | |
| 20260505150515 | 72 | 203 | 1.0 | 5.0 | 0.00 | 0.00 | 0.00 | 63 | 1015.5 |
| 20260505140515 | 67 | 0.0 | 1.0 | 0.00 | 0.00 | 0.00 | 59 | 1015.1 | |
| 20260505124515 | 57 | 0.0 | 2.0 | 0.00 | 0.00 | 0.00 | 13 | 1014.7 | |
| 20260505123515 | 56 | 0.0 | 5.0 | 0.00 | 0.00 | 0.00 | 14 | 1014.6 | |
| 20260505122535 | 54 | 0.0 | 0.0 | 0.00 | 0.00 | 0.00 | 17 | 1014.6 | |
| 20260505121515 | 53 | 0.0 | 0.0 | 0.00 | 0.00 | 0.00 | 19 | 1014.5 | |
| 20260505120515 | 52 | 0.0 | 0.0 | 0.00 | 0.00 | 0.00 | 22 | 1014.2 | |
| 20260505115515 | 51 | 0.0 | 0.0 | 0.00 | 0.00 | 0.00 | 24 | 1014.2 | |
| 20260505114542 | 50 | 0.0 | 0.0 | 0.00 | 0.00 | 0.00 | 26 | 1014.1 | |
| 20260505113535 | 50 | 0.0 | 0.0 | 0.00 | 0.00 | 0.00 | 28 | 1014.1 | |
| 20260505112515 | 50 | 0.0 | 0.0 | 0.00 | 0.00 | 0.00 | 29 | 1014.0 | |
| 20260505111515 | 50 | 0.0 | 0.0 | 0.00 | 0.00 | 0.00 | 30 | 1014.0 | |
| 20260505110515 | 50 | 0.0 | 0.0 | 0.00 | 0.00 | 0.00 | 31 | 1014.0 | |
| 20260505101535 | 51 | 0.0 | 0.0 | 0.00 | 0.00 | 0.00 | 31 | 1013.7 | |
| 20260505100515 | 51 | 0.0 | 0.0 | 0.00 | 0.00 | 0.00 | 31 | 1013.7 | |
| 20260505095535 | 51 | 0.0 | 0.0 | 0.00 | 0.00 | 0.00 | 32 | 1013.6 | |
| 20260505094515 | 52 | 0.0 | 0.0 | 0.00 | 0.00 | 0.00 | 34 | 1013.6 | |
| 20260505093515 | 52 | 0.0 | 0.0 | 0.00 | 0.00 | 0.00 | 35 | 1013.4 | |
| 20260505092515 | 52 | 0.0 | 0.0 | 0.00 | 0.00 | 0.00 | 35 | 1013.4 | |
| 20260505091515 | 52 | 0.0 | 0.0 | 0.00 | 0.00 | 0.00 | 36 | 1013.5 |